• In Netherlands
  • List of Countries
  • For 7 days
  • Water Temperature
  • Satellite Maps
  • Weather Map
  • Weather Widgets
  • user-avatar
    Login

    Hourly Weather Baraki Barak

    Today, 22 February, Wednesday

    Time Temperature Precipitation Wind Pressure Humidity
    00:00 -5°C° 0 mm 2 mps 590 mmHg 40%
    01:00 -5°C° 0 mm 2 mps 591 mmHg 40%
    02:00 -6°C° 0 mm 2 mps 591 mmHg 40%
    03:00 -6°C° 0 mm 2 mps 590 mmHg 41%
    04:00 -6°C° 0 mm 2 mps 590 mmHg 41%
    05:00 -7°C° 0 mm 2 mps 590 mmHg 40%
    06:00 -6°C° 0 mm 2 mps 591 mmHg 39%
    07:00 -6°C° 0 mm 2 mps 591 mmHg 38%
    08:00 -4°C° 0 mm 1 mps 591 mmHg 36%
    09:00 -1°C° 0 mm 1 mps 592 mmHg 33%
    10:00 +1°C° 0 mm 1 mps 593 mmHg 30%
    11:00 +3°C° 0 mm 1 mps 594 mmHg 27%
    12:00 +4°C° 0 mm 1 mps 594 mmHg 28%
    13:00 +5°C° 0 mm 1 mps 594 mmHg 29%
    14:00 +6°C° 0 mm 1 mps 594 mmHg 31%
    15:00 +5°C° 0 mm 1 mps 594 mmHg 33%
    16:00 +4°C° 0 mm 1 mps 593 mmHg 36%
    17:00 +4°C° 0 mm 1 mps 593 mmHg 38%
    18:00 +2°C° 0 mm 1 mps 592 mmHg 42%
    19:00 -1°C° 0 mm 1 mps 592 mmHg 46%
    20:00 -3°C° 0 mm 1 mps 591 mmHg 50%
    21:00 -3°C° 0 mm 1 mps 592 mmHg 49%
    22:00 -3°C° 0 mm 1 mps 592 mmHg 49%
    23:00 -3°C° 0 mm 1 mps 592 mmHg 48%

    Tomorrow, 23 February, Thursday

    Time Temperature Precipitation Wind Pressure Humidity
    00:00 -3°C° 0 mm 1 mps 592 mmHg 48%
    01:00 -4°C° 0 mm 1 mps 592 mmHg 48%
    02:00 -4°C° 0 mm 1 mps 592 mmHg 48%
    03:00 -4°C° 0 mm 1 mps 592 mmHg 48%
    04:00 -4°C° 0 mm 1 mps 592 mmHg 48%
    05:00 -4°C° 0 mm 1 mps 592 mmHg 48%
    06:00 -3°C° 0 mm 1 mps 593 mmHg 46%
    07:00 -2°C° 0 mm 1 mps 593 mmHg 44%
    08:00 -2°C° 0 mm 1 mps 594 mmHg 42%
    09:00 0°C° 0 mm 1 mps 595 mmHg 39%
    10:00 +2°C° 0 mm 1 mps 596 mmHg 36%
    11:00 +4°C° 0 mm 1 mps 596 mmHg 33%
    12:00 +5°C° 0 mm 1 mps 596 mmHg 34%
    13:00 +5°C° 0 mm 1 mps 596 mmHg 36%
    14:00 +6°C° 0 mm 1 mps 596 mmHg 37%
    15:00 +5°C° 0 mm 1 mps 596 mmHg 38%
    16:00 +4°C° 0 mm 2 mps 596 mmHg 39%
    17:00 +4°C° 0 mm 2 mps 596 mmHg 40%
    18:00 +2°C° 0 mm 2 mps 595 mmHg 43%
    19:00 -1°C° 0 mm 2 mps 595 mmHg 45%
    20:00 -3°C° 0 mm 2 mps 595 mmHg 48%
    21:00 -1°C° 0 mm 1 mps 595 mmHg 47%
    22:00 -1°C° 0 mm 1 mps 595 mmHg 47%
    23:00 -1°C° 0 mm 1 mps 595 mmHg 46%

    Day after tomorrow, 24 February, Friday

    Time Temperature Precipitation Wind Pressure Humidity
    00:00 -1°C° 0 mm 1 mps 595 mmHg 45%
    01:00 -1°C° 0 mm 1 mps 595 mmHg 44%
    02:00 -1°C° 0 mm 1 mps 595 mmHg 43%
    03:00 -2°C° 0 mm 1 mps 595 mmHg 43%
    04:00 -2°C° 0 mm 1 mps 594 mmHg 42%
    05:00 -2°C° 0 mm 1 mps 594 mmHg 41%
    06:00 -1°C° 0 mm 1 mps 594 mmHg 39%
    07:00 -1°C° 0 mm 1 mps 595 mmHg 37%
    08:00 0°C° 0 mm 1 mps 595 mmHg 35%
    09:00 +2°C° 0 mm 1 mps 596 mmHg 34%
    10:00 +4°C° 0 mm 1 mps 597 mmHg 32%
    11:00 +7°C° 0 mm 1 mps 598 mmHg 30%
    12:00 +7°C° 0 mm 1 mps 598 mmHg 34%
    13:00 +7°C° 0 mm 2 mps 597 mmHg 37%
    14:00 +7°C° 0 mm 2 mps 597 mmHg 40%
    15:00 +7°C° 0 mm 2 mps 597 mmHg 39%
    16:00 +7°C° 0 mm 2 mps 596 mmHg 39%
    17:00 +7°C° 0 mm 2 mps 596 mmHg 39%
    18:00 +5°C° 0 mm 2 mps 596 mmHg 41%
    19:00 +3°C° 0 mm 2 mps 596 mmHg 43%
    20:00 +3°C° 0 mm 1 mps 595 mmHg 45%
    21:00 +2°C° 0 mm 1 mps 595 mmHg 47%
    22:00 +2°C° 0 mm 1 mps 595 mmHg 49%
    23:00 +1°C° 0 mm 1 mps 595 mmHg 51%

    25 February, Saturday

    Time Temperature Precipitation Wind Pressure Humidity
    00:00 +2°C° 0 mm 1 mps 595 mmHg 53%
    01:00 +2°C° 0 mm 1 mps 595 mmHg 56%
    02:00 +2°C° 0 mm 1 mps 595 mmHg 58%
    03:00 +2°C° 0 mm 1 mps 595 mmHg 61%
    04:00 +2°C° 0 mm 1 mps 595 mmHg 64%
    05:00 +2°C° 0 mm 1 mps 594 mmHg 67%
    06:00 +2°C° 0 mm 1 mps 595 mmHg 69%
    07:00 +2°C° 0 mm 1 mps 595 mmHg 70%
    08:00 +2°C° 0 mm 1 mps 596 mmHg 72%
    09:00 +4°C° 0 mm 1 mps 596 mmHg 70%
    10:00 +4°C° 0 mm 2 mps 597 mmHg 67%
    11:00 +6°C° 0 mm 2 mps 597 mmHg 65%
    12:00 +6°C° 0.1 mm 2 mps 597 mmHg 63%
    13:00 +7°C° 0.1 mm 2 mps 596 mmHg 62%
    14:00 +7°C° 0.1 mm 2 mps 596 mmHg 60%
    15:00 +7°C° 0.2 mm 2 mps 596 mmHg 58%
    16:00 +7°C° 0.2 mm 2 mps 596 mmHg 56%
    17:00 +7°C° 0.2 mm 1 mps 595 mmHg 54%
    18:00 +6°C° 0.1 mm 1 mps 595 mmHg 58%
    19:00 +4°C° 0.1 mm 1 mps 595 mmHg 62%
    20:00 +2°C° 0.1 mm 1 mps 594 mmHg 66%
    21:00 +2°C° 0 mm 1 mps 594 mmHg 67%
    22:00 +2°C° 0 mm 1 mps 595 mmHg 67%
    23:00 +2°C° 0 mm 1 mps 595 mmHg 68%

    26 February, Sunday

    Time Temperature Precipitation Wind Pressure Humidity
    00:00 +1°C° 0 mm 1 mps 595 mmHg 68%
    01:00 +1°C° 0 mm 1 mps 594 mmHg 69%
    02:00 +1°C° 0 mm 1 mps 594 mmHg 69%
    03:00 0°C° 0 mm 1 mps 594 mmHg 69%
    04:00 0°C° 0 mm 1 mps 594 mmHg 69%
    05:00 0°C° 0 mm 1 mps 593 mmHg 70%
    06:00 0°C° 0 mm 1 mps 594 mmHg 68%
    07:00 0°C° 0 mm 1 mps 595 mmHg 67%
    08:00 +1°C° 0 mm 1 mps 595 mmHg 65%
    09:00 +2°C° 0 mm 1 mps 596 mmHg 60%
    10:00 +3°C° 0 mm 1 mps 596 mmHg 55%
    11:00 +5°C° 0 mm 1 mps 597 mmHg 49%
    12:00 +5°C° 0 mm 1 mps 596 mmHg 47%
    13:00 +6°C° 0 mm 1 mps 596 mmHg 45%
    14:00 +6°C° 0 mm 1 mps 596 mmHg 43%
    15:00 +6°C° 0 mm 1 mps 596 mmHg 45%
    16:00 +5°C° 0 mm 0 mps 595 mmHg 46%
    17:00 +5°C° 0 mm 0 mps 595 mmHg 47%
    18:00 +4°C° 0 mm 1 mps 595 mmHg 51%
    19:00 +3°C° 0 mm 1 mps 595 mmHg 55%
    20:00 +2°C° 0 mm 1 mps 594 mmHg 59%
    21:00 +1°C° 0 mm 1 mps 594 mmHg 59%
    22:00 +1°C° 0 mm 1 mps 595 mmHg 60%
    23:00 0°C° 0 mm 1 mps 595 mmHg 61%

    27 February, Monday

    Time Temperature Precipitation Wind Pressure Humidity
    00:00 0°C° 0 mm 1 mps 594 mmHg 61%
    01:00 0°C° 0 mm 1 mps 594 mmHg 61%
    02:00 0°C° 0 mm 1 mps 594 mmHg 61%
    03:00 -1°C° 0 mm 1 mps 594 mmHg 60%
    04:00 -1°C° 0 mm 1 mps 594 mmHg 59%
    05:00 -1°C° 0 mm 1 mps 594 mmHg 58%
    06:00 -1°C° 0 mm 1 mps 594 mmHg 55%
    07:00 0°C° 0 mm 1 mps 595 mmHg 53%
    08:00 +1°C° 0 mm 1 mps 596 mmHg 50%
    09:00 +2°C° 0 mm 1 mps 596 mmHg 45%
    10:00 +4°C° 0 mm 1 mps 597 mmHg 41%
    11:00 +6°C° 0 mm 1 mps 598 mmHg 36%
    12:00 +6°C° 0 mm 1 mps 598 mmHg 36%
    13:00 +7°C° 0 mm 1 mps 597 mmHg 35%
    14:00 +8°C° 0 mm 1 mps 597 mmHg 35%
    15:00 +7°C° 0 mm 1 mps 597 mmHg 37%
    16:00 +7°C° 0 mm 1 mps 597 mmHg 38%
    17:00 +7°C° 0 mm 1 mps 597 mmHg 39%
    18:00 +5°C° 0 mm 1 mps 596 mmHg 42%
    19:00 +3°C° 0 mm 1 mps 596 mmHg 46%
    20:00 +2°C° 0 mm 1 mps 595 mmHg 49%
    21:00 +2°C° 0 mm 1 mps 595 mmHg 48%
    22:00 +1°C° 0 mm 1 mps 595 mmHg 48%
    23:00 +1°C° 0 mm 1 mps 595 mmHg 48%
    Show more